Location: Asbacherhof
(48.8543°N, 10.7903°E)
Time: 23:10:24
(UTC+00:00)

Cosmos 1461 - Pass Details

Date: 26 May 2022
Orbit: 516 x 638 km, 65.0° (Epoch: 29 June)

Event Time Altitude Azimuth Distance (km) Brightness Sun altitude
Rises 00:02:14 0° 314° (NW) 2,738 6.8 -19.2°
Reaches altitude 10° 00:04:35 10° 303° (WNW) 1,860 5.8 -19.1°
Enters shadow 00:08:04 30° 248° (WSW) 1,036 3.9 -19.0°
